Location: Newark
(45.4422°N, 16.2769°E)
Time: 05:47:27
(UTC+00:00)

Explorer 7 - Pass Details

Date: 26 January 2021
Orbit: 484 x 677 km, 50.3° (Epoch: 05 March)

Event Time Altitude Azimuth Distance (km) Brightness Sun altitude
Exits shadow 04:43:35 36° 307° (NW) 822 7.2 -17.3°
Maximum altitude 04:44:36 46° 349° (N) 708 7.2 -17.1°
Drops below altitude 10° 04:48:33 10° 64° (ENE) 1,802 10.2 -16.4°
Sets 04:50:55 0° 71° (ENE) 2,730 11.4 -16.0°
